Flag for Netherlands Weather past 2 weeks in Tilburg, Netherlands

Now
81 °F

Passing clouds.


Feels Like: 82 °F
Forecast: 66 / 81 °F
Wind: 9 mph from Northeast

Location: Gilze-Rijen

Current Time: Jul 22, 2014 at 5:09:59 PM

Latest Report: Jul 22, 2014 at 4:25 PM


Visibility: N/A

Pressure: 30.07 "Hg

Humidity: 58%

Dew point: 64 °F

Location of TilburgLocation

Historic Weather in Tilburg — Graph

°F

Tilburg temperature yesterday

Maximum temperature yesterday: 73 °F (at 1:25 PM)
Minimum temperature yesterday: 64 °F (at 12:59 AM)
Average temperature yesterday: 67 °F

Past Weeks' High & Low Weather Summary

 TemperatureHumidityPressure
High93 °F (Jul 19, 1:56 PM)100% (Jul 8, 8:25 AM)30.18 "Hg (Jul 8, 8:25 AM)
Low54 °F (Jul 15, 3:55 AM)32% (Jul 19, 1:56 PM)29.71 "Hg (Jul 13, 4:25 PM)
Average68 °F81%29.94 "Hg
* Reported Jul 7 3:25 PM — Jul 22 3:55 PM, Tilburg, Weather by CustomWeather, © 2014

Note: Actual official high and low records may vary slightly from our data, if they occured in-between our weather recording intervals... More about our weather records

Advertising

Tilburg weather history for previous 24 hours

 ConditionsComfort  
Time TempWeatherWind HumidityBarometerVisibility
3:55 PM
Jul 22
81 °FWarm.12 mph58%30.07 "HgN/A
3:25 PM79 °FWarm.9 mph58%30.07 "HgN/A
2:55 PM79 °FWarm.9 mph61%30.07 "HgN/A
2:25 PM79 °FWarm.10 mph54%30.07 "HgN/A
1:55 PM79 °FPassing clouds.10 mph51%30.07 "HgN/A
1:25 PM79 °FPassing clouds.10 mph51%30.07 "HgN/A
12:55 PM77 °FPassing clouds.10 mph61%30.07 "HgN/A
12:25 PM77 °FWarm.13 mph61%30.07 "HgN/A
11:55 AM75 °FMild.13 mph65%30.07 "HgN/A
11:25 AM73 °FMild.10 mph74%30.07 "HgN/A
10:55 AM72 °FMild.9 mph83%30.07 "HgN/A
10:25 AM72 °FPassing clouds.10 mph83%30.07 "HgN/A
9:55 AM72 °FPassing clouds.8 mph83%30.07 "HgN/A
9:25 AM70 °FBroken clouds.9 mph88%30.04 "HgN/A
9:02 AM68 °FFog.8 mph94%30.04 "Hg5 mi
8:55 AM68 °FFog.7 mph94%30.04 "Hg4 mi
8:25 AM68 °FFog.6 mph94%30.04 "Hg3 mi
7:55 AM66 °FFog.6 mph100%30.04 "Hg3 mi
7:25 AM66 °FFog.6 mph100%30.04 "Hg3 mi
7:04 AM66 °FFog.6 mph100%30.04 "Hg3 mi
6:55 AM66 °FFog.6 mph100%30.04 "Hg3 mi
6:25 AM66 °FFog.6 mph100%30.04 "Hg2 mi
6:02 AM66 °FFog.7 mph100%30.01 "Hg2 mi
5:55 AM66 °FFog.9 mph100%30.01 "Hg2 mi
5:25 AM66 °FSprinkles. Partly cloudy.9 mph100%30.01 "Hg2 mi
5:01 AM66 °FLight rain. Partly cloudy.8 mph100%30.01 "Hg2 mi
4:55 AM66 °FPartly cloudy.8 mph100%30.01 "Hg2 mi
4:25 AM66 °FFog.6 mph94%30.01 "Hg2 mi
3:59 AM66 °FHeavy rain. Partly cloudy.7 mph94%30.01 "Hg2 mi
3:25 AM66 °FLight rain. Passing clouds.9 mph94%30.01 "Hg3 mi
2:55 AM66 °FLight rain. Mostly cloudy.6 mph94%30.01 "Hg3 mi
2:25 AM66 °FSprinkles. Passing clouds.8 mph94%30.01 "Hg2 mi
1:55 AM66 °FLight rain. Partly cloudy.8 mph94%30.01 "Hg3 mi
1:25 AM66 °FPassing clouds.8 mph100%30.01 "Hg3 mi
1:04 AM66 °FFog.9 mph100%30.01 "Hg3 mi
12:56 AM66 °FFog.8 mph100%30.01 "Hg3 mi
12:25 AM66 °FFog.9 mph100%30.01 "Hg3 mi
11:56 PM
Jul 21
66 °FFog.8 mph100%30.01 "Hg3 mi
11:25 PM66 °FFog.9 mph100%30.01 "Hg3 mi
10:55 PM66 °FFog.9 mph100%30.01 "Hg3 mi
10:25 PM66 °FFog.8 mph100%30.01 "Hg4 mi
9:55 PM66 °FFog.8 mph100%30.01 "Hg5 mi
9:25 PM66 °FDrizzle. More clouds than sun.8 mph100%30.01 "HgN/A
8:55 PM66 °FDrizzle. Broken clouds.10 mph100%29.98 "Hg4 mi
8:25 PM66 °FLight rain. Mostly cloudy.8 mph100%29.98 "Hg2 mi
8:03 PM66 °FRain. Broken clouds.7 mph100%29.98 "Hg3 mi
7:55 PM66 °FDrizzle. Broken clouds.8 mph100%29.98 "Hg3 mi
7:25 PM66 °FRain. Mostly cloudy.9 mph94%29.98 "Hg4 mi
6:55 PM66 °FMostly cloudy.9 mph94%29.98 "HgN/A
6:25 PM68 °FLight rain. Overcast.13 mph88%29.98 "HgN/A
5:55 PM68 °FMostly cloudy.10 mph88%29.98 "HgN/A
5:25 PM68 °FCloudy.13 mph88%29.98 "HgN/A
Weather by CustomWeather, © 2014

See weather overviewHow to use our weather pages